Temp
8 9 9 10 10 10 10 11 11 11 11 11 11 11 11 11 12 12 12 12 12 12 12 12 12 12 12 12 12 12 12 12 12 12 12 12 12 12 12 12 12 12
8 8 8 9 9 9 10 11 11 11 11 11 11 11 11 11 11 11 11 11 12 12 12 12 12 12 12 12 13 13 13 12 12 12 12 12 12 12 13 12 12 12
8 8 8 8 8 8 9 10 11 11 11 11 11 11 11 10 10 11 11 11 11 11 12 12 12 12 12 12 12 12 13 13 12 12 12 12 12 13 13 13 12 12
8 8 8 7 7 7 8 9 10 10 10 11 11 11 11 10 10 10 10 11 11 11 11 12 12 12 12 12 12 12 12 13 12 12 12 12 12 12 13 12 12 12
7 7 7 7 7 7 8 8 9 9 10 10 11 11 11 11 10 10 10 10 10 10 11 11 12 12 12 12 12 12 12 12 12 12 12 13 13 12 12 12 12 12
7 6 6 6 6 7 7 8 8 9 10 10 10 11 11 11 10 10 10 10 10 10 10 11 11 11 11 11 11 12 12 12 12 12 12 12 13 12 12 12 12 12
6 6 6 6 6 7 7 7 8 9 9 10 10 10 10 10 10 10 11 10 10 10 10 10 10 11 11 11 11 11 11 12 12 12 12 12 12 12 12 12 12 12
6 6 6 6 6 7 7 7 7 8 9 10 10 10 10 10 9 10 10 10 10 10 9 9 10 10 10 10 11 11 11 12 12 12 12 12 12 12 12 12 12 12
6 6 6 6 7 7 6 6 7 8 8 9 9 9 9 9 9 8 9 9 10 10 9 9 9 9 10 10 10 10 11 11 12 12 11 11 11 11 12 12 12 12
6 6 6 6 6 6 6 6 6 7 7 8 8 8 8 8 8 8 8 8 9 9 9 8 8 8 9 9 10 10 10 11 11 11 11 11 11 11 12 12 12 12
5 6 6 5 5 5 5 5 5 6 6 6 6 7 7 7 7 7 7 7 7 8 8 8 7 7 8 8 9 9 10 10 10 11 11 11 11 11 11 11 11 12
5 5 5 5 4 4 4 4 4 4 4 4 5 5 6 7 7 7 6 6 6 7 7 7 6 6 7 7 8 9 9 10 10 10 11 11 11 11 11 11 11 11
4 4 4 4 4 3 3 3 3 3 3 3 3 4 5 6 6 6 6 6 6 6 6 6 6 6 6 6 7 8 8 9 9 10 10 11 11 11 11 11 11 11
4 4 4 3 3 3 3 3 3 3 3 2 2 3 3 4 4 4 5 5 5 6 6 6 5 5 6 6 6 7 7 8 9 9 10 10 10 11 11 11 11 11
4 4 3 3 3 3 3 3 3 3 3 2 2 2 2 3 3 3 4 4 5 5 6 6 5 5 5 5 6 6 7 7 8 8 9 10 10 10 11 11 11 11
4 3 3 3 3 3 3 3 2 3 3 2 2 2 2 2 1 1 2 3 4 4 5 5 5 5 5 5 6 6 6 7 8 8 8 9 10 10 10 11 11 11
4 3 3 3 3 3 3 2 2 2 2 1 1 1 1 1 0 0 1 2 2 3 3 4 4 4 5 6 6 6 6 7 7 8 8 8 9 9 10 11 11 11
3 3 3 3 3 3 3 3 2 2 1 1 1 1 1 1 0 0 0 1 1 2 2 2 3 3 4 5 5 6 6 6 7 7 8 8 9 9 10 10 10 11
3 3 3 3 3 3 3 3 2 2 1 1 1 1 1 1 1 1 0 0 1 1 1 1 2 3 4 4 5 5 6 6 6 6 7 8 9 9 9 9 10 10
3 3 3 3 3 3 3 3 2 2 2 1 1 1 1 1 1 1 0 0 0 0 0 1 1 2 3 4 4 5 5 5 6 6 6 7 8 8 9 9 9 9
3 3 3 3 3 3 3 2 2 2 2 1 1 1 1 1 1 1 1 1 1 1 1 1 1 2 2 3 3 4 4 5 5 5 6 6 6 7 8 9 9 9
3 3 3 3 3 3 3 3 2 2 2 1 1 1 1 1 1 1 1 1 1 1 1 1 2 2 2 2 2 3 4 4 4 5 5 6 6 6 7 8 9 9
3 3 3 3 3 3 3 3 2 2 2 2 1 1 1 1 1 1 1 1 1 1 1 1 1 1 1 1 2 2 3 3 3 4 5 5 5 6 6 7 8 8
3 3 3 3 3 3 3 3 2 2 2 2 1 1 1 1 1 1 1 1 1 1 1 1 1 1 1 1 1 2 2 2 2 3 4 4 5 5 5 6 6 7
4 3 3 3 3 3 3 3 2 2 2 2 1 1 1 1 1 1 1 1 1 1 0 1 1 1 1 1 1 1 1 1 2 2 3 3 4 5 5 5 6 6
4 4 4 3 3 3 3 2 2 3 2 2 1 1 1 1 1 1 1 1 1 1 0 0 0 0 1 1 1 1 1 1 1 1 2 2 3 4 4 4 5 6
Height
1536 1535 1534 1534 1533 1533 1532 1532 1531 1531 1530 1530 1529 1529 1528 1527 1527 1526 1525 1524 1523 1522 1521 1520 1518 1517 1516 1515 1514 1513 1512 1511 1510 1509 1509 1508 1508 1509 1511 1512 1513 1513
1535 1534 1534 1533 1532 1532 1531 1530 1529 1529 1529 1528 1527 1527 1526 1526 1525 1525 1524 1523 1521 1520 1519 1518 1516 1515 1514 1513 1511 1511 1510 1508 1507 1506 1506 1506 1505 1506 1507 1509 1510 1510
1535 1534 1533 1532 1531 1530 1529 1528 1528 1527 1527 1526 1525 1524 1524 1523 1523 1523 1522 1521 1519 1518 1517 1516 1515 1513 1512 1511 1510 1509 1507 1506 1505 1504 1503 1503 1504 1504 1505 1506 1507 1508
1534 1533 1532 1531 1531 1529 1529 1527 1527 1526 1525 1524 1523 1522 1522 1521 1521 1520 1520 1519 1518 1516 1515 1514 1513 1511 1510 1509 1508 1507 1505 1504 1503 1501 1500 1500 1501 1502 1502 1503 1504 1504
1533 1532 1532 1531 1530 1529 1528 1526 1525 1524 1523 1522 1521 1521 1520 1519 1518 1518 1517 1516 1515 1514 1513 1512 1511 1509 1508 1507 1505 1504 1503 1502 1501 1500 1498 1497 1498 1498 1499 1499 1500 1500
1533 1532 1531 1530 1529 1527 1526 1525 1524 1523 1521 1521 1520 1519 1518 1517 1516 1516 1515 1514 1512 1511 1510 1509 1508 1507 1505 1504 1503 1501 1500 1499 1499 1498 1496 1494 1494 1495 1495 1496 1496 1496
1533 1532 1530 1529 1527 1526 1525 1524 1522 1521 1520 1519 1519 1517 1516 1515 1515 1514 1513 1511 1510 1509 1507 1506 1505 1504 1503 1501 1500 1499 1497 1497 1496 1496 1495 1493 1492 1492 1492 1492 1492 1492
1532 1531 1530 1528 1526 1525 1524 1523 1521 1520 1519 1518 1517 1516 1515 1514 1513 1512 1511 1509 1507 1506 1505 1504 1503 1501 1500 1498 1497 1496 1494 1493 1493 1492 1492 1491 1490 1490 1490 1490 1490 1489
1532 1530 1529 1527 1526 1525 1523 1522 1521 1519 1519 1517 1516 1516 1514 1513 1512 1510 1509 1507 1505 1504 1502 1502 1500 1498 1497 1496 1495 1493 1491 1490 1490 1489 1489 1488 1487 1487 1487 1488 1488 1487
1531 1530 1529 1527 1525 1524 1523 1522 1520 1519 1518 1517 1516 1515 1514 1512 1511 1509 1507 1505 1503 1502 1500 1499 1497 1495 1494 1494 1492 1490 1489 1488 1487 1487 1486 1485 1484 1484 1484 1485 1485 1484
1531 1530 1528 1527 1526 1525 1524 1522 1521 1519 1518 1517 1516 1514 1513 1512 1510 1508 1506 1503 1501 1499 1498 1498 1495 1492 1492 1491 1489 1488 1486 1485 1485 1484 1484 1483 1482 1481 1481 1481 1481 1480
1531 1530 1529 1528 1527 1526 1524 1523 1521 1519 1518 1517 1516 1515 1513 1512 1510 1508 1506 1503 1501 1498 1497 1496 1493 1491 1490 1488 1487 1485 1484 1483 1482 1481 1480 1480 1479 1479 1478 1478 1477 1476
1531 1531 1530 1529 1528 1527 1525 1524 1522 1520 1518 1517 1516 1515 1513 1512 1510 1508 1506 1503 1501 1498 1496 1494 1492 1490 1488 1486 1484 1482 1481 1480 1479 1478 1477 1477 1476 1476 1476 1475 1474 1473
1533 1532 1531 1530 1529 1528 1526 1524 1522 1521 1519 1518 1517 1515 1513 1512 1510 1508 1506 1504 1501 1499 1496 1494 1492 1489 1486 1483 1481 1479 1478 1477 1476 1475 1474 1473 1473 1473 1472 1471 1471 1470
1534 1533 1532 1531 1530 1528 1527 1525 1523 1522 1520 1519 1518 1516 1514 1512 1510 1508 1506 1503 1501 1499 1496 1494 1491 1488 1486 1483 1479 1476 1474 1473 1473 1472 1471 1470 1469 1469 1469 1468 1467 1467
1535 1534 1533 1532 1531 1529 1528 1526 1524 1523 1521 1520 1519 1517 1515 1513 1511 1509 1506 1503 1501 1498 1496 1493 1491 1489 1486 1484 1480 1476 1472 1470 1469 1468 1468 1467 1466 1466 1465 1464 1464 1464
1537 1536 1535 1534 1532 1531 1529 1527 1526 1524 1523 1521 1519 1518 1516 1513 1511 1509 1506 1504 1501 1498 1496 1493 1491 1489 1486 1483 1480 1476 1472 1468 1466 1465 1465 1464 1463 1462 1462 1461 1461 1460
1538 1537 1536 1535 1534 1532 1531 1529 1528 1526 1524 1522 1520 1518 1516 1514 1512 1509 1507 1504 1501 1499 1496 1493 1491 1488 1486 1482 1479 1475 1471 1467 1464 1462 1461 1461 1460 1459 1458 1457 1457 1457
1539 1538 1537 1536 1535 1534 1532 1531 1528 1526 1525 1523 1522 1520 1517 1515 1512 1510 1508 1505 1502 1499 1497 1494 1491 1488 1485 1481 1478 1474 1470 1466 1462 1460 1458 1457 1456 1455 1454 1454 1453 1453
1540 1540 1539 1538 1537 1535 1533 1531 1529 1528 1526 1525 1523 1521 1518 1515 1513 1511 1509 1506 1503 1501 1498 1495 1492 1488 1485 1481 1477 1473 1470 1466 1462 1459 1456 1455 1453 1452 1451 1450 1449 1449
1542 1541 1540 1539 1538 1536 1534 1532 1530 1529 1527 1526 1524 1522 1519 1517 1514 1512 1510 1507 1505 1502 1499 1496 1492 1489 1485 1481 1477 1473 1469 1466 1462 1458 1456 1453 1451 1449 1447 1446 1445 1445
1543 1542 1541 1540 1539 1537 1536 1534 1532 1530 1529 1527 1525 1523 1521 1518 1516 1514 1511 1509 1506 1503 1499 1496 1493 1489 1485 1481 1477 1473 1469 1465 1461 1458 1455 1452 1450 1447 1445 1443 1442 1441
1544 1543 1542 1541 1540 1538 1537 1535 1534 1532 1530 1528 1526 1524 1522 1519 1517 1515 1513 1510 1507 1503 1500 1497 1493 1489 1486 1482 1478 1473 1469 1465 1462 1458 1455 1452 1449 1446 1443 1441 1440 1438
1545 1544 1543 1542 1540 1539 1538 1537 1535 1533 1531 1529 1527 1525 1523 1521 1519 1517 1514 1511 1508 1505 1501 1498 1495 1491 1487 1483 1479 1475 1471 1467 1463 1459 1455 1452 1448 1446 1443 1440 1438 1436
1546 1545 1544 1543 1542 1541 1540 1538 1537 1535 1533 1531 1529 1527 1525 1523 1521 1518 1515 1513 1510 1507 1503 1500 1496 1493 1489 1485 1481 1476 1472 1468 1464 1460 1455 1452 1449 1445 1442 1439 1437 1435
1548 1547 1545 1544 1543 1542 1541 1540 1538 1536 1534 1532 1530 1528 1526 1524 1521 1519 1517 1514 1511 1508 1505 1502 1498 1495 1491 1487 1483 1479 1474 1470 1465 1461 1456 1453 1450 1446 1442 1439 1436 1433
Wind_Speed
17 17 15 14 12 11 9 7 8 10 12 13 14 13 12 13 12 13 14 14 14 15 15 16 17 18 19 20 20 22 23 24 23 20 19 21 22 21 22 27 28 27
15 16 17 17 17 16 14 11 9 9 11 12 14 14 13 14 13 12 13 15 15 15 15 16 17 17 18 19 19 20 21 22 22 20 20 21 22 23 24 25 28 30
13 15 16 18 19 19 17 15 12 12 11 11 12 12 13 14 13 13 13 14 15 16 16 16 17 18 18 19 20 20 20 20 20 21 22 21 22 24 25 25 27 29
13 14 15 16 17 18 18 16 15 15 14 13 12 13 13 13 13 13 14 14 15 16 16 16 17 18 18 19 20 21 21 21 21 21 22 22 23 25 26 26 27 28
15 15 15 15 16 17 18 19 18 18 18 17 16 15 14 14 13 12 12 14 16 16 17 18 17 17 17 18 19 20 21 22 21 21 21 21 21 24 26 28 29 29
16 17 18 18 18 19 21 21 21 21 20 20 19 18 17 16 15 14 13 13 14 15 16 17 18 18 18 18 19 20 21 21 21 21 22 21 19 21 24 27 28 28
17 18 20 20 20 21 22 22 22 22 22 22 21 21 20 19 18 17 16 15 14 13 14 15 16 16 16 17 18 19 20 20 20 21 22 22 21 22 23 25 27 28
19 19 20 20 21 22 22 22 23 23 23 23 23 22 22 21 20 20 18 17 15 14 14 13 14 15 15 16 17 17 18 18 20 21 21 21 22 25 26 25 26 28
21 22 21 22 23 24 23 23 23 23 23 23 23 23 23 23 22 22 20 18 16 15 13 13 14 15 15 16 17 18 20 20 20 20 20 19 20 24 27 26 25 27
21 22 23 24 25 25 25 25 24 24 23 24 24 24 24 24 24 23 22 21 18 16 15 13 13 16 16 16 17 19 21 21 21 21 20 19 20 21 24 24 22 24
21 22 23 25 26 26 26 26 25 25 24 24 25 25 24 24 25 25 24 24 22 20 17 13 13 17 18 18 19 20 21 22 21 21 20 19 19 20 21 22 22 23
22 23 23 24 25 26 26 26 26 26 25 25 26 26 25 25 25 26 26 26 24 22 19 15 14 17 19 20 22 23 23 22 21 20 19 19 20 21 21 21 22 24
24 24 24 25 25 26 26 26 26 26 26 27 28 27 27 26 26 27 28 28 26 25 22 19 17 19 21 22 24 25 25 25 24 22 21 20 20 21 22 21 21 23
25 25 26 27 27 28 28 28 29 28 27 27 28 29 28 28 28 28 29 29 28 27 26 24 23 23 24 25 26 26 26 27 26 25 24 22 20 20 21 22 21 22
27 28 29 29 29 30 30 30 31 31 30 29 30 30 29 28 28 29 29 30 30 30 29 28 29 30 30 29 28 28 29 28 28 27 28 27 25 22 22 23 22 22
29 30 31 31 32 33 32 32 32 32 32 32 33 33 31 29 29 30 31 32 32 32 32 31 32 33 33 32 30 28 28 29 28 28 28 29 28 26 24 24 24 24
30 31 31 32 33 34 34 33 32 32 32 33 35 36 34 31 31 31 32 34 34 34 34 33 34 34 34 34 34 32 29 27 27 26 25 26 27 26 26 26 27 26
29 29 30 30 31 33 34 34 32 31 31 33 35 37 35 33 32 32 33 35 35 36 35 35 35 36 35 35 36 36 34 29 26 23 22 22 23 24 25 26 26 25
26 27 28 28 29 31 33 34 33 31 30 31 34 36 35 34 33 33 34 35 36 37 38 38 38 38 37 36 36 37 38 33 26 21 19 18 19 21 23 24 24 23
25 27 27 27 28 29 32 34 35 33 30 29 32 35 35 34 34 34 34 35 36 37 39 40 41 41 41 40 38 37 39 37 28 21 17 15 16 17 19 21 22 21
25 26 26 26 26 28 31 34 36 35 32 29 29 33 35 34 34 34 34 35 36 36 38 39 40 42 42 43 42 39 39 39 34 26 20 16 15 14 15 18 20 20
24 25 25 26 26 28 31 33 36 36 34 31 30 32 35 35 34 34 34 36 37 38 40 41 41 42 43 44 44 43 40 39 39 35 27 21 18 16 14 15 17 20
25 25 26 26 27 30 31 32 34 35 34 32 32 33 35 35 34 34 35 37 39 40 42 43 43 44 45 45 44 44 42 40 40 40 36 29 24 20 18 16 15 16
26 26 27 27 28 30 32 32 32 33 32 32 33 33 34 34 33 34 35 36 38 39 40 41 43 43 44 45 45 44 43 41 40 40 39 37 32 27 22 20 18 16
26 27 28 27 26 27 30 31 31 31 31 30 31 32 33 33 33 34 35 35 36 38 39 40 42 42 43 44 45 44 44 43 41 40 40 40 38 33 28 23 20 19
24 26 27 27 25 25 27 29 30 30 31 29 29 30 31 33 34 34 35 36 36 37 39 40 41 42 43 43 43 43 43 43 42 41 40 40 38 35 31 27 23 21
Wind_Direction
30 20 12 11 5 351 339 315 284 275 283 296 304 310 318 318 320 324 322 319 316 314 311 308 310 311 311 312 311 309 307 304 301 294 279 267 264 264 256 248 245 244
37 23 16 17 15 9 6 359 344 325 317 316 315 314 312 308 309 316 318 318 316 314 313 313 313 313 311 311 310 309 306 306 304 293 278 267 263 264 262 255 251 250
29 24 23 24 17 13 13 14 12 2 352 344 334 328 322 314 309 305 306 312 316 313 311 315 316 316 315 312 309 308 307 307 306 296 284 275 267 265 262 257 254 254
26 25 25 25 19 14 14 17 17 12 8 2 351 342 335 328 320 307 298 300 307 309 311 317 319 317 318 316 313 310 306 306 306 301 293 283 273 267 262 257 255 256
33 28 24 24 21 16 16 18 18 14 13 10 3 354 345 340 337 326 307 296 295 299 307 314 316 316 316 317 316 313 309 305 304 303 298 288 276 268 264 262 260 259
33 28 28 28 24 21 21 20 17 15 14 12 9 5 357 350 346 341 330 314 299 296 301 307 310 314 318 319 317 316 313 308 305 304 300 294 283 272 267 265 264 261
32 29 30 30 24 22 23 20 15 15 14 12 12 10 5 359 353 348 346 339 321 305 300 304 311 317 322 323 320 317 315 311 307 304 300 295 287 279 273 267 264 262
32 31 30 27 23 22 23 18 14 16 14 11 12 12 9 6 2 358 356 351 341 322 303 301 313 316 314 314 311 307 306 304 301 301 300 297 288 282 279 273 267 263
32 30 27 25 23 22 20 16 15 16 15 13 15 15 13 11 8 5 3 358 353 342 324 314 311 304 302 306 303 298 296 296 297 298 299 297 291 284 280 276 271 266
34 29 27 26 23 20 18 16 16 17 17 16 18 18 17 16 13 11 8 2 358 353 346 338 319 300 294 297 298 295 294 294 295 297 295 295 295 290 284 279 272 266
35 29 30 30 24 20 19 18 17 18 19 19 20 21 23 22 19 16 13 8 3 358 353 351 330 306 294 290 291 291 292 292 293 294 294 292 292 293 291 286 276 267
35 30 32 32 27 23 21 20 19 19 21 22 20 21 24 25 25 23 20 16 11 4 357 351 332 314 306 299 292 288 288 290 289 289 289 288 286 286 287 285 277 270
36 34 33 31 29 27 24 23 21 20 23 25 21 19 20 22 23 23 22 21 18 14 7 359 344 329 321 313 303 294 289 288 288 287 285 284 283 282 283 283 278 271
37 37 36 33 29 26 23 23 24 24 26 27 21 16 16 17 19 18 18 19 19 19 16 11 3 353 342 331 321 310 299 292 289 287 285 283 282 280 280 282 280 272
38 38 37 35 31 27 24 23 24 25 26 27 23 17 14 15 16 15 13 14 15 16 16 15 12 7 1 352 339 324 313 304 296 289 286 285 284 282 278 277 277 274
40 40 37 34 30 28 27 25 24 23 24 26 24 20 17 17 18 14 11 11 12 12 12 13 13 10 5 1 353 339 323 312 304 296 290 287 285 285 284 280 277 275
41 41 37 32 28 26 26 27 25 25 25 25 23 20 19 21 21 16 11 10 11 11 11 11 12 9 6 3 1 353 340 325 314 304 297 293 290 287 286 284 280 274
43 41 39 35 29 25 25 27 28 28 27 24 21 19 20 23 23 18 13 12 12 12 11 11 10 9 7 5 3 0 353 341 327 316 305 299 295 290 286 287 283 276
43 42 42 39 32 26 23 26 30 31 29 23 18 17 21 25 24 20 17 15 14 13 12 11 10 8 6 5 4 5 2 352 339 329 319 304 296 291 288 289 287 278
44 43 43 42 36 28 24 26 29 31 31 26 17 16 23 27 24 21 18 16 14 13 11 10 8 6 5 4 4 6 7 3 353 343 333 320 306 294 287 287 287 281
44 42 41 40 36 29 27 29 30 29 31 30 22 20 27 29 26 23 21 18 16 14 12 10 7 4 3 2 3 4 6 8 5 357 348 338 327 310 290 281 280 280
40 41 40 39 33 29 28 29 29 27 28 29 27 26 31 33 30 27 26 24 21 20 18 15 12 8 5 2 2 1 3 6 8 5 360 353 343 331 314 290 277 274
35 37 39 36 31 28 27 27 27 26 26 28 28 28 31 33 31 30 29 27 25 22 20 18 15 13 9 6 4 3 2 4 6 6 6 4 357 347 335 318 297 278
35 36 37 35 31 29 29 28 26 26 26 27 28 28 29 29 30 29 28 27 26 23 21 18 16 13 11 9 8 6 4 3 3 4 6 6 3 357 348 335 321 300
36 36 36 37 33 30 30 30 28 27 28 28 27 26 27 27 28 28 27 26 26 24 22 19 17 15 12 10 9 8 6 4 2 2 5 6 4 0 357 349 335 320
33 33 35 39 37 31 30 30 29 28 29 29 28 26 25 27 28 27 26 25 24 23 22 20 17 16 14 11 10 9 8 5 3 2 4 4 3 1 1 360 352 340